Location: Krasnoyarskiy Pitomnik
(51.1333°N, 71.6167°E)
Time: 22:33:01
(UTC+00:00)

deb Explorer IX - Pass Details

Date: 20 April 2024
Orbit: 513 x 891 km, 38.7° (Epoch: 21 May)

Event Time Altitude Azimuth Distance (km) Brightness Sun altitude
Rises 07:04:50 0° 228° (SW) 3,437 ? 50.6°
Reaches altitude 10° 07:07:54 10° 214° (SSW) 2,540 ? 50.6°
Maximum altitude 07:12:27 22° 166° (SSE) 1,865 ? 50.6°
Drops below altitude 10° 07:17:03 10° 118° (ESE) 2,583 ? 50.6°
Sets 07:20:12 0° 104° (ESE) 3,510 ? 50.6°
